115P/Maury (2020)

Japanese version
Home page
Updated on July 2, 2021

---------------------------------------------------------------------

* Profile

* Pictures

* Orbital Elements

Epoch 2020 May 31.0 TT = JDT 2459000.5
T 2020 July 29.77160 TT                                 Spoto
q   2.0568916            (2000.0)            P               Q
n   0.11144875     Peri.  121.01765     +0.45586969     +0.88993595
a   4.2764748      Node   176.02416     -0.86993106     +0.44884371
e   0.5190217      Incl.   11.67394     -0.18815625     +0.08095263
P   8.84
From 1213 observations 1985 Aug. 16-2020 Sept. 1, mean residual 0".7.
     Nongravitational parameters A1 = +0.59, A2 = -0.0307.

* Finding Charts

* Magnitudes Graph

        m1 = 10.5 + 5 log d + 15.0 log r

---------------------------------------------------------------------

The orbital elements are published on M.P.E.C. 2020-S188.
The charts are made with StellaNavigator Ver.10 (AstroArts).
The magnitudes graphs are made with Comet for Windows.

---------------------------------------------------------------------

Copyright(C) Seiichi Yoshida (comet@aerith.net). All rights reserved.